Simultaneous Nadir Overpasses (SNOs) Predictions

Prediction of SNOs between AQUA and NOAA-19 Satellite Orbit:

Table of predicted SNOs for the next 14.0 days since TLE Epoch: 2/22/2013
Index Date (AQUA) Time (AQUA) Lat,Lon (AQUA) SZA (AQUA ) Date (NOAA-19) Time (NOAA-19) Lat,Lon (NOAA-19) SZA (NOAA-19 ) Distance(km) Time Diff (sec)
1 02/22/2013 14:00:06 -78.86, 127.01 90.07 02/22/2013 13:58:53 -78.41, 124.92 90.26 67.98 73
2 02/22/2013 15:02:52 48.56, 167.57 134.15 02/22/2013 15:03:35 48.43, 168.19 133.87 47.76 43
3 02/24/2013 18:41:22 -69.68, 80.74 101.23 02/24/2013 18:40:09 -69.47, 79.40 101.41 56.91 73
4 02/24/2013 19:47:06 48.91, 96.63 133.08 02/24/2013 19:47:55 48.78, 97.24 132.80 46.93 49
5 02/26/2013 23:22:43 -59.53, 19.10 112.05 02/26/2013 23:21:30 -59.42, 18.35 112.21 43.81 73
6 02/27/2013 00:31:20 49.26, 25.69 131.99 02/27/2013 00:32:14 49.17, 26.31 131.68 46.12 54
7 03/01/2013 04:04:26 -50.36, -47.18 121.51 03/01/2013 04:03:13 -50.27, -47.59 121.68 30.82 73
8 03/01/2013 05:15:34 49.59, -45.25 130.90 03/01/2013 05:16:34 49.48, -44.64 130.61 45.27 60
9 03/03/2013 08:48:39 -49.97,-118.09 122.68 03/03/2013 08:47:32 -49.91,-118.52 122.84 31.41 67
10 03/03/2013 09:59:49 49.86,-116.21 129.85 03/03/2013 10:00:54 49.78,-115.60 129.53 44.59 65
11 03/05/2013 13:32:54 -49.71, 170.94 123.74 03/05/2013 13:31:52 -49.62, 170.52 123.92 32.12 62
12 03/05/2013 14:44:02 50.24, 172.87 128.70 03/05/2013 14:45:13 50.12, 173.46 128.40 43.83 71
13 03/07/2013 18:17:07 -49.34, 100.02
